Lexington Weather

Lexington, Massachusetts, USA

28°F
12/12/2019 4:24pm 
  • Lexington Conditions: Partly cloudy
  • Temperature: 27.7°F / -2.4°CColder 1.4°F than last hour.
  • Dew Point: 19.8°FDecreased 0.1°Fsince last hour.
  • Relative Humidity: 72%Increased 4.0% since last hour.
  • Wind: Wind from WSW WSW Calm, 10-min avg: 1 mph, gust: 2 mph
  • Barometer: 30.66 in Steady
  • Visibility: 10 miles
  • Snow Today: 0.0 in
  •   

Regional Weather Roundup
for Boston / Norton, MA

        
000
ASUS41 KBOX 101110
RWRBOX

REGIONAL WEATHER ROUNDUP
NATIONAL WEATHER SERVICE BOSTON/NORTON MA
600 AM EST TUE DEC 10 2019

NOTE:  "FAIR" INDICATES FEW OR NO CLOUDS BELOW 12,000 FEET WITH NO 
SIGNIFICANT WEATHER AND/OR OBSTRUCTIONS TO VISIBILITY.

MAZALL-101200-
EASTERN MASSACHUSETTS
  
CITY           SKY/WX    TMP DP  RH WIND       PRES   REMARKS
BOSTON         MOCLDY    58  51  78 SW16      29.71R                  
BEVERLY        CLOUDY    56  52  86 SW10      29.70R                  
LAWRENCE       CLOUDY    53  50  89 S12       29.71R                  
BEDFORD        CLOUDY    55  50  83 SW9       29.70R                  
BLUE HILL        N/A     54  52  93 SW18G32   29.70R                  
NORWOOD        CLOUDY    59  52  77 SW9       29.71S                  
MARSHFIELD     CLOUDY    57  55  94 SW16G23   29.73R                  
PLYMOUTH       CLOUDY    56  54  93 SW16G25   29.75R                  
TAUNTON        CLOUDY    57  52  83 SW8       29.75R                  
NEW BEDFORD    CLOUDY    56  53  90 SW16G23   29.76R                  
$$

MAZALL-101200-
CAPE COD AND THE ISLANDS
  
CITY           SKY/WX    TMP DP  RH WIND       PRES   REMARKS
FALMOUTH       CLOUDY    55  55 100 SW26G40   29.78R                  
HYANNIS        CLOUDY    58  54  86 SW21G31   29.77R                  
CHATHAM        CLOUDY    52  51  97 SW13G23   29.81R FOG              
PROVINCETOWN   CLOUDY    52  51  97 SW20      29.76R                  
NANTUCKET      CLOUDY    54  52  93 SW18      29.82R FOG              
MARTHAS VNYRD  CLOUDY    56  54  93 SW15G24   29.80R FOG              
$$
 
MAZALL-101200-
CENTRAL AND WESTERN MASSACHUSETTS
  
CITY           SKY/WX    TMP DP  RH WIND       PRES   REMARKS
WORCESTER      CLOUDY    50  49  96 SW20      29.71R                  
FITCHBURG      CLOUDY    53  47  79 SW7G17    29.69S                  
ORANGE         CLOUDY    50  46  86 S8        29.70R                  
SPRINGFIELD    CLOUDY    48  48 100 S9        29.71R                  
WESTFIELD      CLOUDY    48  46  93 S13       29.72R                  
NORTH ADAMS    CLOUDY    43  41  93 CALM      29.69R                  
PITTSFIELD     CLOUDY    49  46  90 S10G23    29.69R                  
$$
 
RIZALL-101200-
RHODE ISLAND
  
CITY           SKY/WX    TMP DP  RH WIND       PRES   REMARKS
PROVIDENCE     CLOUDY    57  54  89 SW14G24   29.75S                  
NEWPORT        CLOUDY    54  52  93 S9        29.77S FOG              
BLOCK ISLAND   CLOUDY    53  52  96 SW12      29.81R FOG              
SMITHFIELD     CLOUDY    55  53  93 SW9G17    29.73S                  
WESTERLY       CLOUDY    56  51  84 SW12G18   29.80R                  
$$
 
CTZALL-101200-
CONNECTICUT
  
CITY           SKY/WX    TMP DP  RH WIND       PRES   REMARKS
BRADLEY INTL   CLOUDY    47  46  97 S9        29.73R                  
HARTFORD       CLOUDY    53  51  93 S6        29.74R                  
BRIDGEPORT     MOCLDY    52  49  89 SW7       29.77R                  
DANBURY        MOCLDY    54  51  90 SW12      29.75R                  
GROTON         MOCLDY    53  52  96 SW10      29.77S                  
NEW HAVEN      FAIR      53  50  89 SW7       29.76R                  
CHESTER        CLOUDY    55  54  94 VRB7G20   29.77R                  
MERIDEN        CLOUDY    54  51  90 S7        29.75R                  
WILLIMANTIC    CLOUDY    56  52  86 VRB6      29.76S                  
OXFORD         CLOUDY    54  52  93 SW8       29.75R                  
$$

MEZ002-015-021-024-NHZ003-005-008-011-012-014-VTZ005-008-101200-
NORTHERN NEW ENGLAND
  
CITY           SKY/WX    TMP DP  RH WIND       PRES   REMARKS
PORTLAND ME    MOCLDY    53  48  83 S8        29.65R                  
BANGOR ME      CLOUDY    53  50  89 S6        29.59R                  
CONCORD NH     CLOUDY    50  46  86 S5        29.66R                  
MANCHESTER NH  CLOUDY    50  47  89 S8        29.66R                  
NASHUA NH      MOCLDY    52  51  97 VRB6      29.68R                  
PORTSMOUTH NH  NOT AVBL                                               
JAFFREY NH     CLOUDY    48  46  93 S8G20     29.68R FOG              
KEENE NH       CLOUDY    48  46  93 S6        29.68R                  
BURLINGTON VT  CLOUDY    50  45  83 S17G25    29.53R                  
MT. WASHINGTON FOG       34  34 100 W49G58      N/A  VSB 0   WCI  17  
$$

NYZ052-076-101200-
EASTERN NEW YORK
  
CITY           SKY/WX    TMP DP  RH WIND       PRES   REMARKS
ALBANY         CLOUDY    48  44  86 S12       29.67R                  
NEW YORK CITY  CLOUDY    57  51  80 SW9       29.77R                  
$$
 
ANZALL-101200-
MARINE OBSERVATIONS
  
STATION/POSITION TIME  TEMP    WIND        PRES    VSBY  WAVE
                       AIR SEA DIR/SP/G                  HT/PER
                 (UTC) (F)     (DEG/KT/KT) (MB)    (MI)  (FT/S)
BOSTON BUOY      1050   54 48  200/ 16/ 19 1005.2R         3/ 8
BUZZARDS BAY     1000   54     230/ 21/ 22 1008.7R
NANTUCKET SOUND  1030   49                   N/A
MASS BAY-STELLWA 1004   50 46  230/ 12/ 14 1003.7R  1 7/8  5/ 8
ISLE OF SHOALS   1000   53     230/ 22/ 23 1003.8R
S OF BLOCK IS    1100      53                N/A          13/11
$$

......................KEY.........................
  SKY/WX - SKY CONDITION/PRESENT WEATHER
  TMP    - TEMPERATURE IN FAHRENHEIT
  DWPT   - DEWPOINT IN FAHRENHEIT
  RH     - RELATIVE HUMIDITY IN PERCENT
  WIND   - DIRECTION AND SPEED IN MPH
  PRES   - MEAN SEA LEVEL PRESSURE IN INCHES OF HG
  WCI    - WIND CHILL INDEX
  VSB    - VISIBILITY IN MILES
  HX     - HEAT INDEX
  TC     - TEMPERATURE IN CELSIUS
  VRB    - VARIABLE WIND DIRECTION
  N/A    - NOT AVAILABLE
  
      

Other recent Regional Weather Roundups

Thu Dec 12, 4:01pm

Thu Dec 12, 3:10pm

Thu Dec 12, 3:00pm

Thu Dec 12, 2:10pm

Thu Dec 12, 2:01pm

Thu Dec 12, 1:10pm

Thu Dec 12, 1:00pm

Thu Dec 12, 12:10pm

Thu Dec 12, 12:00pm

Thu Dec 12, 11:10am

Thu Dec 12, 11:00am

Thu Dec 12, 10:10am

Thu Dec 12, 8:10am

Thu Dec 12, 8:00am

Thu Dec 12, 7:10am

Thu Dec 12, 7:00am

Thu Dec 12, 6:10am

Thu Dec 12, 6:00am

Thu Dec 12, 5:10am

Thu Dec 12, 5:00am

Thu Dec 12, 4:10am

Thu Dec 12, 4:00am

Thu Dec 12, 3:10am

Thu Dec 12, 3:00am

Thu Dec 12, 2:10am

Thu Dec 12, 2:00am

Thu Dec 12, 1:10am

Thu Dec 12, 1:00am

Thu Dec 12, 12:10am

Thu Dec 12, 12:00am

Wed Dec 11, 11:10pm

Wed Dec 11, 11:00pm

Wed Dec 11, 10:10pm

Wed Dec 11, 10:00pm

Wed Dec 11, 9:10pm

Wed Dec 11, 9:00pm

Wed Dec 11, 8:10pm

Wed Dec 11, 8:00pm

Wed Dec 11, 7:10pm

Wed Dec 11, 7:00pm

Wed Dec 11, 6:10pm

Wed Dec 11, 6:00pm

Wed Dec 11, 5:10pm

Wed Dec 11, 5:01pm

Wed Dec 11, 4:10pm

Wed Dec 11, 4:00pm

Wed Dec 11, 3:10pm

Wed Dec 11, 3:01pm

Wed Dec 11, 2:10pm

Wed Dec 11, 2:00pm

Wed Dec 11, 1:10pm

Wed Dec 11, 1:00pm

Wed Dec 11, 12:10pm

Wed Dec 11, 12:00pm

Wed Dec 11, 11:10am

Wed Dec 11, 11:00am

Wed Dec 11, 10:10am

Wed Dec 11, 10:00am

Wed Dec 11, 9:10am

Wed Dec 11, 9:00am

Wed Dec 11, 8:10am

Wed Dec 11, 8:00am

Wed Dec 11, 7:10am

Wed Dec 11, 7:00am

Wed Dec 11, 6:10am

Wed Dec 11, 6:00am

Wed Dec 11, 5:10am

Wed Dec 11, 5:00am

Wed Dec 11, 4:10am

Wed Dec 11, 4:00am

Wed Dec 11, 3:10am

Wed Dec 11, 3:01am

Wed Dec 11, 2:10am

Wed Dec 11, 2:01am

Wed Dec 11, 1:10am

Wed Dec 11, 1:00am

Wed Dec 11, 12:10am

Wed Dec 11, 12:00am

Tue Dec 10, 11:10pm

Tue Dec 10, 11:00pm

Tue Dec 10, 10:10pm

Tue Dec 10, 10:00pm

Tue Dec 10, 9:10pm

Tue Dec 10, 9:01pm

Tue Dec 10, 8:10pm

Tue Dec 10, 8:00pm

Tue Dec 10, 7:10pm

Tue Dec 10, 7:01pm

Tue Dec 10, 6:10pm

Tue Dec 10, 6:01pm

Tue Dec 10, 5:10pm

Tue Dec 10, 5:00pm

Tue Dec 10, 4:10pm

Tue Dec 10, 4:01pm

Tue Dec 10, 3:10pm

Tue Dec 10, 3:01pm

Tue Dec 10, 2:10pm

Tue Dec 10, 2:01pm

Tue Dec 10, 1:10pm

Tue Dec 10, 1:00pm

Tue Dec 10, 12:10pm

Tue Dec 10, 12:00pm

Tue Dec 10, 11:10am

Tue Dec 10, 11:00am

Tue Dec 10, 10:10am

Tue Dec 10, 10:00am

Tue Dec 10, 9:10am

Tue Dec 10, 9:01am

Tue Dec 10, 8:10am

Tue Dec 10, 8:00am

Tue Dec 10, 7:10am

Tue Dec 10, 7:00am

Tue Dec 10, 6:00am

Tue Dec 10, 5:10am

Tue Dec 10, 5:00am

Tue Dec 10, 4:10am

Tue Dec 10, 4:00am

Tue Dec 10, 3:10am

Tue Dec 10, 3:00am

Tue Dec 10, 2:10am

Tue Dec 10, 2:01am

Tue Dec 10, 1:10am

Tue Dec 10, 1:00am

Tue Dec 10, 12:10am

Tue Dec 10, 12:01am

Mon Dec 9, 11:10pm

Mon Dec 9, 11:01pm

Mon Dec 9, 10:10pm

Mon Dec 9, 10:00pm

Mon Dec 9, 9:10pm

Mon Dec 9, 9:01pm

Mon Dec 9, 8:10pm

Mon Dec 9, 8:01pm

Mon Dec 9, 7:10pm

Mon Dec 9, 7:00pm

Mon Dec 9, 6:10pm

Mon Dec 9, 6:00pm

Mon Dec 9, 5:10pm

Mon Dec 9, 5:01pm

Mon Dec 9, 4:10pm

Meta data:

ID: 3351ea37-a936-42f7-be16-53c232ddc162
Link: https://api.weather.gov/products/3351ea37-a936-42f7-be16-53c232ddc162